Zurück zum Katalog

WESTFORD NEEDLES

LostPO
NORAD 19059·DEBRIS·🇺🇸 United States

Gestartet May 9, 1963 von Vandenberg Space Force Base

Loading…

Nächste Überflüge (nächste 24 Stunden)

TLE

VeraltetSource: Space-Track

Epoche: Apr 25, 2026, 04:01 UTC

1 19059U 63014EG  26115.16777297  .00000231  00000-0  10569+0 0  9995
2 19059  87.3566 192.4323 0026562 106.1595 254.2186  8.66533897209186

Verfolge WESTFORD NEEDLES in Echtzeit mit AllMySat

Download on the App Store